Total_Precipitation_Accumulation
0.06 0.05 0.08 0.06 0.05 0.05 0.02 0.00 0.00 0.00 0.00 0.00 0.00 0.00 0.00 0.00 0.00 0.00 0.00 0.00 0.00 0.00
0.04 0.02 0.06 0.06 0.03 0.01 0.01 0.01 0.00 0.00 0.00 0.00 0.00 0.00 0.00 0.00 0.00 0.00 0.00 0.00 0.00 0.00
0.11 0.08 0.04 0.04 0.02 0.00 0.00 0.00 0.00 0.00 0.00 0.00 0.00 0.00 0.00 0.00 0.00 0.00 0.00 0.00 0.00 0.00
0.12 0.16 0.13 0.08 0.03 0.00 0.00 0.00 0.00 0.00 0.00 0.00 0.00 0.00 0.00 0.00 0.00 0.00 0.00 0.00 0.00 0.00
0.09 0.08 0.08 0.08 0.04 0.01 0.00 0.00 0.00 0.00 0.00 0.00 0.00 0.00 0.00 0.00 0.00 0.00 0.00 0.00 0.00 0.00
0.05 0.10 0.10 0.10 0.12 0.07 0.01 0.00 0.00 0.00 0.00 0.00 0.00 0.02 0.02 0.01 0.01 0.01 0.00 0.00 0.01 0.02
0.02 0.10 0.06 0.03 0.10 0.14 0.13 0.05 0.03 0.03 0.05 0.07 0.07 0.09 0.09 0.08 0.08 0.08 0.10 0.11 0.12 0.10
0.10 0.04 0.08 0.07 0.06 0.05 0.13 0.16 0.11 0.12 0.13 0.19 0.23 0.22 0.19 0.18 0.17 0.17 0.18 0.18 0.20 0.21
0.20 0.10 0.07 0.12 0.18 0.18 0.15 0.15 0.12 0.09 0.12 0.16 0.20 0.28 0.30 0.29 0.24 0.22 0.23 0.22 0.21 0.18
0.05 0.15 0.10 0.02 0.03 0.09 0.06 0.12 0.16 0.13 0.09 0.07 0.07 0.20 0.23 0.23 0.19 0.22 0.20 0.20 0.19 0.16
0.00 0.00 0.00 0.00 0.00 0.01 0.02 0.00 0.03 0.06 0.07 0.07 0.09 0.13 0.15 0.17 0.14 0.17 0.17 0.15 0.12 0.10
0.00 0.00 0.00 0.00 0.00 0.00 0.00 0.00 0.00 0.01 0.03 0.06 0.07 0.10 0.07 0.07 0.06 0.08 0.07 0.06 0.05 0.05
0.00 0.00 0.00 0.00 0.00 0.00 0.00 0.00 0.00 0.00 0.00 0.02 0.02 0.03 0.01 0.01 0.00 0.01 0.01 0.01 0.01 0.01
0.00 0.00 0.00 0.00 0.00 0.00 0.00 0.00 0.00 0.00 0.00 0.00 0.00 0.00 0.00 0.00 0.00 0.01 0.01 0.01 0.01 0.00